Preview of NWS' New Version of Forecast
This preview is not operational and should not be used for support decisions.

Regional Weather Roundup (RWR)

Issued by National Weather Service (NWS)

                            
000
ASCA42 TJSJ 190510
RWRPR 
PUERTO RICO/U.S. VIRGIN ISLANDS HOURLY WEATHER ROUNDUP
NATIONAL WEATHER SERVICE SAN JUAN PR
100 AM AST THU SEP 19 2019

PRZ001>002-007>008-010-190600-
PUERTO RICO
  
CITY           SKY/WX    TMP DP  RH WIND       PRES   REMARKS
SAN JUAN LMM   PTCLDY    81  75  83 E8        29.83F                  
AGUADILLA      PTCLDY    79  73  83 CALM      29.85F                  
CEIBA          PTCLDY    82  75  78 E6        29.85F                  
$$

VIZ001>002-190600-
U.S. VIRGIN ISLANDS
  
CITY           SKY/WX    TMP DP  RH WIND       PRES   REMARKS
CHARLOTTE AMA  PTCLDY    82  73  74 E5        29.84F                  
CHRISTIANSTED  PTCLDY    81  73  78 NE8       29.84F                  
$$

HOURLY WEATHER ROUNDUP FOR THE NEWS MEDIA
  
CITY           SKY/WX    TMP DP  RH WIND       PRES   REMARKS
ORLANDO        CLOUDY    76  70  82 NE3       30.03S                  
NEW YORK       FAIR      55  44  66 E13       30.33S                  
NEWARK         FAIR      60  44  55 E7        30.32R                  
CHICAGO        FAIR      70  59  68 S3        30.09R                  
HARTFORD       FAIR      44  41  89 CALM      30.31F                  
BOSTON         FAIR      54  43  66 N7        30.34S                  
DALLAS         PTCLDY    79  71  76 E6        29.91S                  
PHILADELPHIA   FAIR      58  47  66 NE6       30.30F                  
LOS ANGELES    PTCLDY    70  63  78 SW7       29.88S                  
WASHINGTON DC  FAIR      59  52  77 E3        30.28R